FW5335 Weather Reports


time (UTC)temp
C
wind
direction
speed
KPH
gust
KPH
rain 1hr
cm
rain 24hr
cm
rain mn
cm
humidity
%
barometer
mb
20260505053518 9 45 1.6 4.8 0.00 0.00 0.00 91 1015.0
20260505052518 8 68 3.2 6.4 0.00 0.00 0.00 92 1014.9
20260505051518 8 68 1.6 6.4 0.00 0.00 0.00 91 1014.8
20260505050522 8 45 1.6 8.0 0.00 0.00 0.00 92 1014.9
20260505041620 7 23 3.2 9.7 0.00 0.00 0.00 92 1014.8
20260505035544 7 0.0 1.6 0.00 0.00 0.00 91 1014.6
20260505033543 7 0.0 0.0 0.00 0.00 0.00 91 1014.6
20260505032557 7 0.0 3.2 0.00 0.00 0.00 91 1014.7
20260505031519 7 225 3.2 4.8 0.00 0.00 0.00 91 1014.8
20260505030613 7 0.0 1.6 0.00 0.00 0.00 91 1014.6
20260505025607 7 225 1.6 4.8 0.00 0.00 0.00 90 1014.7
20260505023603 7 0.0 0.0 0.00 0.00 0.00 91 1014.8
20260505022538 7 0.0 0.0 0.00 0.00 0.00 90 1014.7
20260505021518 7 0.0 3.2 0.00 0.00 0.00 90 1014.9
20260505020519 8 225 1.6 4.8 0.00 0.00 0.00 90 1015.0
20260505015519 8 0.0 1.6 0.00 0.00 0.00 90 1015.1
20260505014543 8 0.0 1.6 0.00 0.00 0.00 89 1015.1
20260505013538 8 225 1.6 3.2 0.00 0.00 0.00 89 1015.3
20260505012518 8 0.0 0.0 0.00 0.00 0.00 90 1015.4
20260505011518 8 0.0 0.0 0.00 0.00 0.00 89 1015.2
20260505010518 9 0.0 0.0 0.00 0.00 0.00 89 1015.2
20260505005519 9 0.0 0.0 0.00 0.00 0.00 89 1015.2
20260505004519 9 0.0 1.6 0.00 0.00 0.00 88 1015.3
20260505003518 9 0.0 0.0 0.00 0.00 0.00 88 1015.4
20260505002523 10 0.0 1.6 0.00 0.00 0.00 89 1015.5
20260505001519 9 225 1.6 3.2 0.00 0.00 0.00 88 1015.5
20260505000524 10 0.0 3.2 0.00 0.00 0.00 88 1015.6
20260504235520 10 225 1.6 3.2 0.00 0.00 0.00 88 1015.5
20260504234520 10 225 3.2 8.0 0.00 0.00 0.00 87 1015.6
20260504233518 10 293 3.2 4.8 0.00 0.00 0.00 87 1015.6
20260504232520 10 0.0 0.0 0.00 0.00 0.00 86 1015.5
20260504231520 11 0 1.6 4.8 0.00 0.00 0.00 86 1015.5
20260504230540 11 0.0 3.2 0.00 0.00 0.00 85 1015.4
20260504225517 11 90 1.6 4.8 0.00 0.00 0.00 86 1015.5
20260504224518 11 90 1.6 3.2 0.00 0.00 0.00 85 1015.5
20260504223538 11 90 1.6 4.8 0.00 0.00 0.00 84 1015.7
20260504222519 12 90 1.6 4.8 0.00 0.00 0.00 84 1015.7
20260504221518 12 113 1.6 4.8 0.00 0.00 0.00 84 1015.8
20260504220518 12 135 1.6 4.8 0.00 0.00 0.00 83 1015.8
20260504215520 12 90 3.2 8.0 0.00 0.00 0.00 82 1015.8
20260504214519 12 90 3.2 4.8 0.00 0.00 0.00 82 1015.7
20260504213521 12 68 1.6 4.8 0.00 0.00 0.00 81 1015.7
20260504212518 13 68 1.6 3.2 0.00 0.00 0.00 80 1015.6
20260504211519 13 68 3.2 6.4 0.00 0.00 0.00 80 1015.4
20260504210518 13 68 3.2 6.4 0.00 0.00 0.00 80 1015.5
20260504205524 13 68 3.2 8.0 0.00 0.00 0.00 80 1015.5
20260504204539 13 90 3.2 6.4 0.00 0.00 0.00 80 1015.6
20260504203518 13 90 3.2 4.8 0.00 0.00 0.00 81 1015.6
20260504202519 13 68 3.2 6.4 0.00 0.00 0.00 80 1015.6
20260504201524 14 68 1.6 4.8 0.00 0.00 0.00 80 1015.7
20260504200519 14 68 3.2 6.4 0.00 0.00 0.00 80 1015.6
20260504195519 14 68 3.2 4.8 0.00 0.00 0.00 80 1015.4
20260504194523 14 90 3.2 6.4 0.00 0.00 0.00 79 1015.3
20260504193522 15 90 3.2 6.4 0.00 0.00 0.00 79 1015.2
20260504192520 15 113 1.6 6.4 0.00 0.00 0.00 78 1015.2
20260504191520 15 90 3.2 8.0 0.00 0.00 0.00 76 1015.2
20260504190519 15 90 4.8 8.0 0.00 0.00 0.00 76 1015.1
20260504185519 15 68 6.4 12.9 0.00 0.00 0.00 75 1014.9
20260504184519 15 68 4.8 12.9 0.00 0.00 0.00 75 1014.9
20260504183518 15 68 4.8 12.9 0.00 0.00 0.00 76 1014.7
20260504182519 15 68 4.8 8.0 0.00 0.00 0.00 75 1014.7
20260504181518 15 68 6.4 12.9 0.00 0.00 0.00 75 1014.4
20260504180519 15 90 4.8 11.3 0.00 0.00 0.00 75 1014.5
20260504175522 15 68 4.8 11.3 0.00 0.00 0.00 75 1014.7
20260504174520 15 68 6.4 14.5 0.00 0.00 0.00 74 1014.5
20260504173524 15 68 6.4 14.5 0.00 0.00 0.00 75 1014.5
20260504172519 15 90 4.8 11.3 0.00 0.00 0.00 74 1014.6
20260504171539 16 68 6.4 12.9 0.00 0.00 0.00 75 1014.5
20260504170518 16 68 6.4 17.7 0.00 0.00 0.00 74 1014.6
20260504150518 16 0 11.3 16.1 0.00 0.00 0.00 72 1014.5
20260504140519 18 23 12.9 20.9 0.00 0.00 0.00 65 1014.8
20260504130523 21 180 4.8 12.9 0.00 0.00 0.00 48 1014.9
20260504110538 17 135 6.4 14.5 0.00 0.00 0.00 65 1015.2
20260504100519 16 113 4.8 12.9 0.00 0.00 0.00 73 1015.1
20260504081518 14 248 1.6 4.8 0.00 0.00 0.00 79 1014.8
20260504080517 14 270 1.6 4.8 0.00 0.00 0.00 80 1014.7